Flag for Germany Weather past 2 weeks in Neuss, North Rhine-Westphalia, Germany

Now
82 °F

Sunny.


Feels Like: 81 °F
Forecast: 65 / 90 °F
Wind: 6 mph from East

Location: Duesseldorf

Current Time: Jun 30, 2015 at 4:40:00 PM

Latest Report: Jun 30, 2015 at 3:50 PM


Visibility: 10 mi

Pressure: 30.12 "Hg

Humidity: 30%

Dew point: 48 °F

Location of NeussLocation

Historic Weather in Neuss — Graph

°F

Neuss temperature yesterday

Maximum temperature yesterday: 77 °F (at 3:20 PM)
Minimum temperature yesterday: 64 °F (at 5:50 AM)
Average temperature yesterday: 71 °F

Past Weeks' High & Low Weather Summary

 TemperatureHumidityPressure
High81 °F (Jun 30, 2:20 PM)100% (Jun 18, 5:50 AM)30.30 "Hg (Jun 18, 5:50 AM)
Low43 °F (Jun 17, 3:50 AM)32% (Jun 30, 2:50 PM)29.71 "Hg (Jun 22, 5:50 PM)
Average62 °F69%30.08 "Hg
* Reported Jun 15 2:20 PM — Jun 30 2:50 PM, Neuss, Weather by CustomWeather, © 2015

Note: Actual official high and low records may vary slightly from our data, if they occured in-between our weather recording intervals... More about our weather records

Advertising

Neuss weather history for previous 24 hours

 ConditionsComfort  
Time TempWeatherWind HumidityBarometerVisibility
2:50 PM
Tue, Jun 30
81 °FSunny.1 mph32%30.15 "Hg10 mi
2:20 PM81 °FSunny.2 mph37%30.15 "Hg10 mi
1:50 PM79 °FSunny.3 mph37%30.15 "Hg10 mi
1:20 PM79 °FSunny.3 mph37%30.15 "Hg10 mi
12:50 PM79 °FSunny.3 mph37%30.15 "Hg10 mi
12:20 PM77 °FSunny.2 mph51%30.18 "Hg10 mi
11:50 AM75 °FPassing clouds.5 mph50%30.18 "HgN/A
11:20 AM75 °FPassing clouds.6 mph54%30.18 "HgN/A
10:50 AM73 °FPassing clouds.3 mph57%30.18 "HgN/A
10:20 AM73 °FSunny.3 mph57%30.18 "Hg10 mi
9:50 AM72 °FSunny.3 mph61%30.18 "Hg10 mi
9:20 AM70 °FSunny.1 mph64%30.18 "Hg10 mi
8:50 AM68 °FSunny.2 mph69%30.18 "Hg10 mi
8:20 AM66 °FSunny.3 mph73%30.18 "Hg10 mi
7:50 AM64 °FSunny.5 mph83%30.18 "Hg10 mi
7:20 AM63 °FSunny.3 mph88%30.18 "Hg10 mi
6:50 AM59 °FSunny.3 mph88%30.18 "Hg10 mi
6:20 AM55 °FFog.2 mph94%30.18 "HgN/A
5:50 AM55 °FFog.2 mph94%30.18 "HgN/A
5:20 AM55 °FFog.2 mph88%30.18 "HgN/A
4:50 AM55 °FFog.2 mph94%30.15 "HgN/A
4:20 AM55 °FClear.1 mph88%30.18 "Hg10 mi
3:50 AM57 °FClear.1 mph88%30.18 "Hg10 mi
3:20 AM57 °FClear.2 mph88%30.18 "Hg10 mi
2:50 AM59 °FClear.1 mph82%30.18 "Hg10 mi
2:20 AM59 °FClear.1 mph82%30.18 "Hg10 mi
1:50 AM61 °FClear.2 mph83%30.18 "Hg10 mi
1:20 AM61 °FClear.1 mph77%30.18 "Hg10 mi
12:50 AM61 °FClear.2 mph83%30.18 "Hg10 mi
12:20 AM63 °FClear.1 mph73%30.18 "Hg10 mi
11:20 PM
Mon, Jun 29
66 °FClear.2 mph64%30.18 "Hg10 mi
10:50 PM68 °FSunny.3 mph56%30.18 "Hg10 mi
10:20 PM70 °FSunny.5 mph53%30.18 "Hg10 mi
9:50 PM72 °FSunny.5 mph50%30.18 "Hg10 mi
9:20 PM72 °FSunny.6 mph53%30.18 "Hg10 mi
8:50 PM73 °FSunny.7 mph50%30.18 "Hg10 mi
8:20 PM73 °FSunny.5 mph47%30.15 "Hg10 mi
7:50 PM75 °FSunny.6 mph44%30.15 "Hg10 mi
7:20 PM77 °FSunny.6 mph42%30.15 "Hg10 mi
6:50 PM77 °FSunny.8 mph44%30.15 "Hg10 mi
6:20 PM77 °FSunny.8 mph42%30.15 "Hg10 mi
5:50 PM77 °FSunny.5 mph39%30.15 "Hg10 mi
5:20 PM77 °FSunny.7 mph42%30.15 "Hg10 mi
4:50 PM77 °FPassing clouds.9 mph42%30.15 "HgN/A
4:20 PM77 °FPassing clouds.6 mph44%30.15 "HgN/A
Weather by CustomWeather, © 2015

See weather overviewHow to use our weather pages